Location: The Saddle
(36.8333°N, 80.3417°W)
Time: 15:34:06
(UTC-05:00)

X-37B - Pass Details

Date: 02 December 2023
Orbit: 277 x 277 km, 45.0° (Epoch: 01 November)

Event Time Altitude Azimuth Distance (km) Brightness Sun altitude
Rises 18:01:07 0° 276° (W) 1,910 5.4 -11.1°
Reaches altitude 10° 18:03:22 10° 296° (WNW) 1,099 3.5 -11.6°
Maximum altitude 18:05:12 18° 345° (NNW) 767 2.0 -11.9°
Enters shadow 18:06:15 15° 18° (NNE) 892 2.1 -12.1°
